This is the latest recevied weather packets stored in our database for station/object CRYC. If no packets are shown the sender has not sent any weather packets the latest 10 day(s).
| Time | Temp. | Humidity | Pressure | Rain* | Wind** | Luminosity | Snow |
|---|---|---|---|---|---|---|---|
| 1778192279 | 18.33° C | - | - | 0 mm | 3.13 m/s, 249° | - | - |
| 1778191671 | 18.89° C | - | - | 0 mm | 3.13 m/s, 249° | - | - |
| 1778191067 | 18.89° C | - | - | 0 mm | 2.68 m/s, 266° | - | - |
| 1778190460 | 19.44° C | - | - | 0 mm | 2.24 m/s, 269° | - | - |
| 1778189855 | 19.44° C | - | - | 0 mm | 2.68 m/s, 267° | - | - |
| 1778188646 | 20° C | - | - | 0 mm | 3.58 m/s, 263° | - | - |
| 1778188039 | 20° C | - | - | 0 mm | 3.13 m/s, 259° | - | - |
| 1778187434 | 20° C | - | - | 0 mm | 1.79 m/s, 249° | - | - |
| 1778186831 | 20.56° C | - | - | 0 mm | 2.24 m/s, 256° | - | - |
| 1778186216 | 19.44° C | - | - | 0 mm | 0 m/s | - | - |
| 1778185610 | 20° C | - | - | 0 mm | 0.89 m/s, 243° | - | - |
| 1778185006 | 19.44° C | - | - | 0 mm | 2.24 m/s, 284° | - | - |
| 1778184401 | 19.44° C | - | - | 0 mm | 0.89 m/s, 259° | - | - |
| 1778183797 | 19.44° C | - | - | 0 mm | 0.89 m/s, 248° | - | - |
| 1778183192 | 18.89° C | - | - | 0 mm | 1.79 m/s, 232° | - | - |
| 1778181981 | 17.78° C | - | - | 0 mm | 0.45 m/s, 257° | - | - |
| 1778181375 | 19.44° C | - | - | 0 mm | 0.89 m/s, 260° | - | - |
| 1778180166 | 18.33° C | - | - | 0 mm | 0 m/s | - | - |
| 1778179563 | 18.33° C | - | - | 0 mm | 1.34 m/s, 183° | - | - |
| 1778178954 | 17.78° C | - | - | 0 mm | 0 m/s | - | - |
| 1778178350 | 16.67° C | - | - | 0 mm | 0 m/s | - | - |
| 1778177743 | 17.78° C | - | - | 0 mm | 0 m/s | - | - |
| 1778177139 | 16.67° C | - | - | 0 mm | 0 m/s | - | - |
| 1778176532 | 16.67° C | - | - | 0 mm | 0 m/s | - | - |
| 1778175927 | 17.22° C | - | - | 0 mm | 0 m/s | - | - |
* Rain latest hour (hover to see other rain measurements)
** Current wind speed in m/s (hover to see current wind gust speed)